• în Republica Moldova
  • Lista ţărilor
  • Pe 7 zile
  • Temperatura apei
  • Hartă satelitară
  • Meteo pe hartă
  • Widget-uri
  • user-avatar
    Intrare

    Meteo pe oră la Djelfa

    Astăzi, 23 August, Miercuri

    Timp Temperatura Precipitaţii Vânt Presiune Umiditate
    00:00 +27°C° 0 mm 2 m/s 667 mmHg 30%
    01:00 +27°C° 0 mm 2 m/s 667 mmHg 32%
    02:00 +26°C° 0 mm 2 m/s 667 mmHg 35%
    03:00 +26°C° 0 mm 1 m/s 667 mmHg 37%
    04:00 +25°C° 0 mm 1 m/s 667 mmHg 38%
    05:00 +25°C° 0 mm 1 m/s 667 mmHg 40%
    06:00 +25°C° 0 mm 1 m/s 668 mmHg 41%
    07:00 +26°C° 0 mm 2 m/s 668 mmHg 39%
    08:00 +27°C° 0 mm 3 m/s 669 mmHg 37%
    09:00 +29°C° 0 mm 3 m/s 669 mmHg 35%
    10:00 +30°C° 0 mm 3 m/s 669 mmHg 31%
    11:00 +31°C° 0 mm 2 m/s 669 mmHg 28%
    12:00 +32°C° 0 mm 2 m/s 669 mmHg 25%
    13:00 +32°C° 0 mm 2 m/s 669 mmHg 23%
    14:00 +34°C° 0 mm 2 m/s 669 mmHg 21%
    15:00 +35°C° 0 mm 2 m/s 668 mmHg 19%
    16:00 +34°C° 0 mm 2 m/s 668 mmHg 19%
    17:00 +34°C° 0 mm 3 m/s 668 mmHg 19%
    18:00 +34°C° 0 mm 3 m/s 668 mmHg 19%
    19:00 +33°C° 0 mm 3 m/s 668 mmHg 21%
    20:00 +32°C° 0 mm 4 m/s 668 mmHg 23%
    21:00 +30°C° 0 mm 4 m/s 668 mmHg 25%
    22:00 +30°C° 0 mm 4 m/s 668 mmHg 27%
    23:00 +29°C° 0 mm 5 m/s 668 mmHg 29%

    Mâine, 24 August, Joi

    Timp Temperatura Precipitaţii Vânt Presiune Umiditate
    00:00 +28°C° 0 mm 5 m/s 668 mmHg 31%
    01:00 +27°C° 0 mm 4 m/s 668 mmHg 33%
    02:00 +27°C° 0 mm 4 m/s 668 mmHg 35%
    03:00 +26°C° 0 mm 3 m/s 667 mmHg 36%
    04:00 +26°C° 0 mm 3 m/s 668 mmHg 37%
    05:00 +26°C° 0 mm 3 m/s 668 mmHg 37%
    06:00 +26°C° 0 mm 2 m/s 668 mmHg 38%
    07:00 +27°C° 0 mm 3 m/s 669 mmHg 34%
    08:00 +29°C° 0 mm 4 m/s 669 mmHg 31%
    09:00 +30°C° 0 mm 4 m/s 670 mmHg 28%
    10:00 +32°C° 0 mm 4 m/s 670 mmHg 26%
    11:00 +33°C° 0 mm 3 m/s 670 mmHg 24%
    12:00 +34°C° 0 mm 3 m/s 670 mmHg 22%
    13:00 +34°C° 0 mm 3 m/s 670 mmHg 20%
    14:00 +35°C° 0 mm 2 m/s 669 mmHg 19%
    15:00 +36°C° 0 mm 2 m/s 669 mmHg 17%
    16:00 +35°C° 0 mm 2 m/s 669 mmHg 17%
    17:00 +35°C° 0 mm 2 m/s 669 mmHg 17%
    18:00 +35°C° 0 mm 3 m/s 669 mmHg 17%
    19:00 +34°C° 0 mm 4 m/s 669 mmHg 19%
    20:00 +33°C° 0 mm 5 m/s 669 mmHg 21%
    21:00 +32°C° 0 mm 6 m/s 669 mmHg 23%
    22:00 +30°C° 0 mm 6 m/s 669 mmHg 25%
    23:00 +29°C° 0 mm 6 m/s 669 mmHg 26%

    Poimâine, 25 August, Vineri

    Timp Temperatura Precipitaţii Vânt Presiune Umiditate
    00:00 +28°C° 0 mm 6 m/s 669 mmHg 28%
    01:00 +28°C° 0 mm 5 m/s 668 mmHg 30%
    02:00 +27°C° 0 mm 4 m/s 668 mmHg 31%
    03:00 +27°C° 0 mm 4 m/s 668 mmHg 33%
    04:00 +26°C° 0 mm 4 m/s 668 mmHg 34%
    05:00 +26°C° 0 mm 4 m/s 668 mmHg 34%
    06:00 +26°C° 0 mm 3 m/s 669 mmHg 35%
    07:00 +27°C° 0 mm 4 m/s 669 mmHg 32%
    08:00 +29°C° 0 mm 5 m/s 669 mmHg 29%
    09:00 +30°C° 0 mm 5 m/s 670 mmHg 27%
    10:00 +32°C° 0 mm 5 m/s 670 mmHg 25%
    11:00 +33°C° 0 mm 5 m/s 670 mmHg 23%
    12:00 +34°C° 0 mm 5 m/s 670 mmHg 21%
    13:00 +35°C° 0 mm 5 m/s 669 mmHg 20%
    14:00 +35°C° 0 mm 4 m/s 669 mmHg 19%
    15:00 +36°C° 0 mm 4 m/s 669 mmHg 18%
    16:00 +35°C° 0 mm 4 m/s 668 mmHg 19%
    17:00 +35°C° 0 mm 5 m/s 668 mmHg 20%
    18:00 +34°C° 0 mm 5 m/s 668 mmHg 20%
    19:00 +33°C° 0,1 mm 5 m/s 668 mmHg 24%
    20:00 +32°C° 0,1 mm 5 m/s 669 mmHg 27%
    21:00 +30°C° 0,1 mm 5 m/s 669 mmHg 30%
    22:00 +29°C° 0,2 mm 4 m/s 669 mmHg 32%
    23:00 +29°C° 0,2 mm 3 m/s 669 mmHg 33%

    26 August, Sâmbătă

    Timp Temperatura Precipitaţii Vânt Presiune Umiditate
    00:00 +28°C° 0,2 mm 3 m/s 669 mmHg 34%
    01:00 +28°C° 0 mm 3 m/s 668 mmHg 35%
    02:00 +28°C° 0 mm 4 m/s 668 mmHg 36%
    03:00 +27°C° 0 mm 5 m/s 668 mmHg 37%
    04:00 +27°C° 0 mm 4 m/s 668 mmHg 38%
    05:00 +26°C° 0 mm 4 m/s 668 mmHg 39%
    06:00 +26°C° 0 mm 3 m/s 668 mmHg 40%
    07:00 +27°C° 0 mm 4 m/s 668 mmHg 36%
    08:00 +29°C° 0 mm 4 m/s 669 mmHg 33%
    09:00 +30°C° 0 mm 5 m/s 669 mmHg 30%
    10:00 +32°C° 0 mm 5 m/s 669 mmHg 27%
    11:00 +33°C° 0 mm 5 m/s 669 mmHg 25%
    12:00 +34°C° 0 mm 4 m/s 669 mmHg 22%
    13:00 +35°C° 0 mm 4 m/s 669 mmHg 21%
    14:00 +35°C° 0 mm 4 m/s 668 mmHg 20%
    15:00 +36°C° 0 mm 3 m/s 668 mmHg 19%
    16:00 +35°C° 0,1 mm 4 m/s 668 mmHg 20%
    17:00 +35°C° 0,1 mm 4 m/s 668 mmHg 21%
    18:00 +34°C° 0,1 mm 4 m/s 668 mmHg 22%
    19:00 +33°C° 0,4 mm 5 m/s 668 mmHg 24%
    20:00 +32°C° 0,4 mm 5 m/s 668 mmHg 27%
    21:00 +30°C° 0,4 mm 5 m/s 668 mmHg 29%
    22:00 +30°C° 0 mm 5 m/s 668 mmHg 30%
    23:00 +29°C° 0 mm 5 m/s 668 mmHg 32%

    27 August, Duminică

    Timp Temperatura Precipitaţii Vânt Presiune Umiditate
    00:00 +29°C° 0 mm 5 m/s 668 mmHg 33%
    01:00 +28°C° 0,1 mm 4 m/s 668 mmHg 34%
    02:00 +28°C° 0,1 mm 3 m/s 667 mmHg 36%
    03:00 +27°C° 0,1 mm 3 m/s 667 mmHg 37%
    04:00 +27°C° 0 mm 2 m/s 667 mmHg 38%
    05:00 +27°C° 0 mm 2 m/s 668 mmHg 38%
    06:00 +27°C° 0 mm 2 m/s 668 mmHg 38%
    07:00 +28°C° 0 mm 2 m/s 668 mmHg 34%
    08:00 +30°C° 0 mm 3 m/s 669 mmHg 30%
    09:00 +31°C° 0 mm 3 m/s 669 mmHg 26%
    10:00 +33°C° 0 mm 3 m/s 669 mmHg 24%
    11:00 +34°C° 0 mm 3 m/s 669 mmHg 22%
    12:00 +35°C° 0 mm 2 m/s 669 mmHg 20%
    13:00 +35°C° 0 mm 2 m/s 668 mmHg 19%
    14:00 +36°C° 0 mm 2 m/s 668 mmHg 19%
    15:00 +36°C° 0 mm 2 m/s 668 mmHg 18%
    16:00 +36°C° 0,1 mm 2 m/s 668 mmHg 19%
    17:00 +35°C° 0,1 mm 3 m/s 668 mmHg 20%
    18:00 +35°C° 0,1 mm 3 m/s 668 mmHg 21%
    19:00 +34°C° 0 mm 3 m/s 668 mmHg 22%
    20:00 +33°C° 0 mm 3 m/s 668 mmHg 24%
    21:00 +33°C° 0 mm 3 m/s 668 mmHg 25%
    22:00 +31°C° 0,1 mm 3 m/s 668 mmHg 26%
    23:00 +30°C° 0,1 mm 3 m/s 668 mmHg 26%

    28 August, Luni

    Timp Temperatura Precipitaţii Vânt Presiune Umiditate
    00:00 +30°C° 0,1 mm 3 m/s 667 mmHg 27%
    01:00 +29°C° 0,3 mm 2 m/s 667 mmHg 28%
    02:00 +28°C° 0,3 mm 2 m/s 667 mmHg 29%
    03:00 +28°C° 0,3 mm 1 m/s 667 mmHg 31%
    04:00 +28°C° 0,1 mm 1 m/s 667 mmHg 31%
    05:00 +27°C° 0,1 mm 1 m/s 667 mmHg 32%
    06:00 +27°C° 0,1 mm 1 m/s 668 mmHg 32%
    07:00 +29°C° 0 mm 1 m/s 668 mmHg 29%
    08:00 +30°C° 0 mm 2 m/s 668 mmHg 26%
    09:00 +31°C° 0 mm 2 m/s 669 mmHg 23%
    10:00 +32°C° 0 mm 2 m/s 669 mmHg 22%
    11:00 +34°C° 0 mm 2 m/s 669 mmHg 21%
    12:00 +35°C° 0 mm 2 m/s 669 mmHg 20%
    13:00 +35°C° 0 mm 3 m/s 668 mmHg 19%
    14:00 +36°C° 0 mm 3 m/s 668 mmHg 19%
    15:00 +36°C° 0 mm 3 m/s 668 mmHg 18%
    16:00 +36°C° 0 mm 4 m/s 668 mmHg 19%
    17:00 +35°C° 0 mm 5 m/s 668 mmHg 19%
    18:00 +35°C° 0 mm 5 m/s 668 mmHg 20%
    19:00 +34°C° 0 mm 5 m/s 668 mmHg 21%
    20:00 +34°C° 0 mm 5 m/s 668 mmHg 23%
    21:00 +33°C° 0 mm 5 m/s 668 mmHg 24%
    22:00 +32°C° 0 mm 4 m/s 668 mmHg 25%
    23:00 +32°C° 0 mm 4 m/s 668 mmHg 26%
    Arată mai mult